Powrót do katalogu

COSMOS 2251 DEB

AktywnyLEO
NORAD 34953·DEBRIS·🇷🇺 Russia

Wystrzelony Jun 16, 1993 z Plesetsk Cosmodrome

Loading…

Następne Przeloty (najbliższe 24 godziny)

TLE

ŚwieżeSource: Space-Track

Epoka: Sep 14, 2026, 08:11 UTC

1 34953U 93036AEG 26257.34150922  .00003059  00000-0  48687-3 0  9996
2 34953  74.0907 214.5250 0053440 135.7816  15.9528 14.71511290921798

Śledź COSMOS 2251 DEB w czasie rzeczywistym z AllMySat

Download on the App Store